Weather History for KOPM - December, 2012

Change the Weather History Date:

Sunday, December 16, 2012

  Actual Average Record
Temperature  
Mean Temperature 72 °F -  
Max Temperature 73 °F - - ()
Min Temperature 71 °F - - ()
Cooling Degree Days 7    
Growing Degree Days 22 (Base 50)    
Moisture  
Dew Point 70 °F    
Average Humidity 93    
Maximum Humidity 100    
Minimum Humidity 88    
Precipitation  
Precipitation 0.00 in - - ()
Sea Level Pressure  
Sea Level Pressure 29.80 in    
Wind  
Wind Speed 14 mph (SSE)    
Max Wind Speed 18 mph    
Max Gust Speed -    
Visibility 3 miles    
Events      
Averages and records for this station are not official NWS values.
T = Trace of Precipitation, MM = Missing Value Source: NWS Daily Summary

Daily Weather History Graph

Daily Weather History Graph

Search for Another Location

Airport or City:

Trip Planner

Search our weather history database for the weather conditions in past years. The results will help you decide how hot, cold, wet, or windy it might be!

Date:

Astronomy

Dec. 16, 2012 Rise Set
Actual Time 7:09 AM CST 5:37 PM CST
Civil Twilight 6:44 AM CST 6:02 PM CST
Nautical Twilight 6:15 AM CST 6:31 PM CST
Astronomical Twilight 5:47 AM CST 7:00 PM CST
Moon 9:59 AM CST (12/16) 9:34 PM CST (12/16)
Length of Visible Light 11h 18m
Length of Day
10h 27m
Waxing Crescent, 16% of the Moon is Illuminated
Dec 16
Waxing Crescent
Dec 19
First Quarter
Dec 28
Full
Jan 4
Last Quarter
Jan 11
New

Hourly Weather History & Observations

Time (CST) Temp. Dew Point Humidity Pressure Visibility Wind Dir Wind Speed Gust Speed Precip Events Conditions
12:15 AM 71.6 °F 69.8 °F 94% 29.83 in 4.0 mi SE 18.4 mph - N/A   Mostly Cloudy
12:35 AM 71.6 °F 69.8 °F 94% 29.84 in 3.0 mi SE 15.0 mph - N/A   Mostly Cloudy
12:55 AM 71.6 °F 69.8 °F 94% 29.83 in 4.0 mi SE 15.0 mph - N/A   Overcast
1:15 AM 71.6 °F 69.8 °F 94% 29.83 in 4.0 mi SE 16.1 mph - N/A   Overcast
1:35 AM 71.6 °F 71.6 °F 100% 29.83 in 4.0 mi SE 13.8 mph - N/A   Overcast
1:55 AM 73.4 °F 71.6 °F 94% 29.83 in 4.0 mi SE 11.5 mph - N/A   Overcast
2:15 AM 71.6 °F 71.6 °F 100% 29.83 in 3.0 mi SSE 8.1 mph - N/A   Overcast
2:35 AM 71.6 °F 71.6 °F 100% 29.82 in 3.0 mi SE 10.4 mph - N/A   Overcast
2:55 AM 71.6 °F 71.6 °F 100% 29.81 in 3.0 mi SE 12.7 mph - N/A   Overcast
3:15 AM 71.6 °F 69.8 °F 94% 29.80 in 3.0 mi SSE 13.8 mph - N/A   Overcast
3:35 AM 71.6 °F 69.8 °F 94% 29.79 in 3.0 mi South 8.1 mph - N/A   Mostly Cloudy
3:55 AM 71.6 °F 69.8 °F 94% 29.79 in 3.0 mi SSE 10.4 mph - N/A   Overcast
4:15 AM 71.6 °F 69.8 °F 94% 29.79 in 3.0 mi SSE 11.5 mph - N/A   Mostly Cloudy
4:35 AM 71.6 °F 69.8 °F 94% 29.79 in 4.0 mi SSE 11.5 mph - N/A   Overcast
4:55 AM 71.6 °F 69.8 °F 94% 29.80 in 4.0 mi SSE 10.4 mph - N/A   Overcast
5:15 AM 71.6 °F 69.8 °F 94% 29.80 in 4.0 mi SE 9.2 mph - N/A   Overcast
5:35 AM 71.6 °F 69.8 °F 94% 29.79 in 5.0 mi SSE 15.0 mph - N/A   Overcast
5:55 AM 71.6 °F 69.8 °F 94% 29.79 in 5.0 mi SSE 13.8 mph - N/A   Overcast
6:15 AM 71.6 °F 69.8 °F 94% 29.80 in 5.0 mi SSE 13.8 mph - N/A   Overcast
6:35 AM 71.6 °F 69.8 °F 94% 29.80 in 5.0 mi SSE 11.5 mph - N/A   Overcast
6:55 AM 71.6 °F 69.8 °F 94% 29.82 in 5.0 mi SSE 10.4 mph - N/A   Overcast
7:15 AM 71.6 °F 69.8 °F 94% 29.81 in 3.0 mi SE 13.8 mph - N/A   Overcast
7:35 AM 71.6 °F 69.8 °F 94% 29.82 in 3.0 mi SE 12.7 mph - N/A   Mostly Cloudy
7:55 AM 71.6 °F 69.8 °F 94% 29.83 in 3.0 mi SSE 11.5 mph - N/A   Mostly Cloudy
8:15 AM 71.6 °F 69.8 °F 94% 29.83 in 3.0 mi SSE 13.8 mph - N/A   Mostly Cloudy
8:55 AM 73.4 °F 69.8 °F 88% 29.88 in 3.0 mi SSW 9.2 mph - N/A   Mostly Cloudy
9:15 AM 73.4 °F 71.6 °F 94% 29.86 in 3.0 mi South 13.8 mph - N/A   Scattered Clouds
9:35 AM 73.4 °F 71.6 °F 94% 29.87 in 3.0 mi South 12.7 mph - N/A   Partly Cloudy
9:55 AM 73.4 °F 69.8 °F 88% 29.87 in 3.0 mi South 11.5 mph - N/A   Partly Cloudy
10:15 AM 73.4 °F 69.8 °F 88% 29.87 in 2.5 mi SSE 10.4 mph - N/A   Partly Cloudy
10:35 AM 73.4 °F 69.8 °F 88% 29.86 in 2.5 mi SSE 10.4 mph - N/A   Clear
10:55 AM 73.4 °F 69.8 °F 88% 29.85 in 2.5 mi SE 11.5 mph - N/A   Clear
11:15 AM 73.4 °F 69.8 °F 88% 29.85 in 2.0 mi SSE 12.7 mph - N/A   Clear
11:35 AM 71.6 °F 69.8 °F 94% 29.84 in 1.8 mi SSE 11.5 mph - N/A   Clear
11:55 AM 71.6 °F 69.8 °F 94% 29.83 in 1.8 mi South 15.0 mph - N/A   Clear
12:15 PM 73.4 °F 69.8 °F 88% 29.82 in 1.5 mi South 13.8 mph - N/A   Clear
12:35 PM 71.6 °F 69.8 °F 94% 29.81 in 1.5 mi South 11.5 mph - N/A   Clear
12:55 PM 71.6 °F 69.8 °F 94% 29.78 in 1.2 mi SSE 15.0 mph - N/A   Clear
1:15 PM 71.6 °F 69.8 °F 94% 29.77 in 1.5 mi SSE 16.1 mph - N/A   Clear
1:35 PM 73.4 °F 69.8 °F 88% 29.75 in 1.8 mi SSE 17.3 mph - N/A   Clear
1:55 PM 71.6 °F 69.8 °F 94% 29.73 in 1.5 mi SSE 17.3 mph - N/A   Clear
2:15 PM 73.4 °F 69.8 °F 88% 29.73 in 1.8 mi SSE 17.3 mph - N/A   Clear
2:35 PM 71.6 °F 69.8 °F 94% 29.73 in 1.8 mi SSE 15.0 mph - N/A   Clear
2:55 PM 71.6 °F 69.8 °F 94% 29.73 in 2.0 mi SSE 16.1 mph - N/A   Clear
3:15 PM 71.6 °F 69.8 °F 94% 29.74 in 2.0 mi South 12.7 mph - N/A   Clear
3:35 PM 71.6 °F 69.8 °F 94% 29.74 in 2.0 mi South 12.7 mph - N/A   Clear
3:55 PM 73.4 °F 69.8 °F 88% 29.74 in 2.5 mi South 13.8 mph - N/A   Clear
4:15 PM 73.4 °F 69.8 °F 88% 29.74 in 2.5 mi SSE 15.0 mph - N/A   Clear
4:35 PM 71.6 °F 69.8 °F 94% 29.74 in 2.0 mi SSE 12.7 mph - N/A   Clear
4:55 PM 71.6 °F 69.8 °F 94% 29.74 in 2.0 mi SSE 13.8 mph - N/A   Clear
5:15 PM 71.6 °F 69.8 °F 94% 29.75 in 2.0 mi SSE 11.5 mph - N/A   Clear
5:35 PM 71.6 °F 69.8 °F 94% 29.75 in 2.5 mi SSE 15.0 mph - N/A   Clear
5:55 PM 71.6 °F 69.8 °F 94% 29.76 in 2.5 mi SSE 16.1 mph - N/A   Clear
6:15 PM 71.6 °F 69.8 °F 94% 29.75 in 3.0 mi SSE 15.0 mph - N/A   Clear
6:35 PM 71.6 °F 69.8 °F 94% 29.77 in 3.0 mi SSE 15.0 mph - N/A   Clear
6:55 PM 71.6 °F 69.8 °F 94% 29.77 in 3.0 mi SSE 16.1 mph - N/A   Clear
7:15 PM 71.6 °F 69.8 °F 94% 29.77 in 3.0 mi SSE 15.0 mph - N/A   Clear
7:35 PM 71.6 °F 69.8 °F 94% 29.77 in 3.0 mi SSE 16.1 mph - N/A   Clear
7:55 PM 71.6 °F 69.8 °F 94% 29.78 in 3.0 mi SSE 15.0 mph - N/A   Clear
8:35 PM 71.6 °F 69.8 °F 94% 29.80 in 2.5 mi South 13.8 mph - N/A   Clear
8:55 PM 71.6 °F 69.8 °F 94% 29.80 in 2.5 mi SSE 13.8 mph - N/A   Clear
9:15 PM 71.6 °F 69.8 °F 94% 29.81 in 2.5 mi South 12.7 mph - N/A   Clear
9:35 PM 71.6 °F 69.8 °F 94% 29.81 in 2.5 mi South 13.8 mph - N/A   Clear
9:55 PM 71.6 °F 69.8 °F 94% 29.81 in 2.0 mi South 13.8 mph - N/A   Clear
10:15 PM 71.6 °F 69.8 °F 94% 29.82 in 2.0 mi South 13.8 mph - N/A   Clear
10:35 PM 71.6 °F 69.8 °F 94% 29.82 in 2.0 mi South 13.8 mph - N/A   Clear
10:55 PM 71.6 °F 69.8 °F 94% 29.83 in 1.8 mi SW 9.2 mph - N/A   Clear
11:15 PM 71.6 °F 69.8 °F 94% 29.82 in 1.5 mi South 15.0 mph - N/A   Clear
11:35 PM 71.6 °F 69.8 °F 94% 29.83 in 1.5 mi SSW 13.8 mph - N/A   Clear
11:55 PM 71.6 °F 69.8 °F 94% 29.82 in 1.5 mi South 16.1 mph - N/A   Clear